User: anonymous   Login
Location: Unspecified
(0.0000°N, 0.0000°E)
Time: 03:02:48
(UTC+00:00)
Language:

Explorer 29 - Orbit

View from above orbital plane
View from above orbital plane
View from above satellite
View from above satellite

Ground track
Ground track

The orbit data is extracted from the following two-line orbital elements,

1  1726U 65089A   18322.56037664 -.00000060  00000-0  87115-4 0  9990
2  1726  59.3798 130.2779 0714178 211.0254 217.5840 11.97049294318680
Epoch (UTC): 18 November 2018 13:26:56
Eccentricity: 0.0714178
inclination: 59.3798°
perigee height: 1117 km
apogee height: 2270 km
right ascension of ascending node: 130.2779°
argument of perigee: 211.0254°
revolutions per day: 11.97049294
mean anomaly at epoch: 217.5840°
orbit number at epoch: 31868

The dashed part of the orbit path shows where the satellite is in the earth's shadow,  

DLR